Year,Month,Day,Hour,Minute,Value (Times are PST for temperature in C)
2007,06,19,00,00,10.90
2007,06,19,00,01,10.90
2007,06,19,00,02,10.90
2007,06,19,00,03,10.80
2007,06,19,00,04,10.80
2007,06,19,00,05,10.80
2007,06,19,00,06,10.80
2007,06,19,00,07,10.70
2007,06,19,00,08,10.70
2007,06,19,00,09,10.70
2007,06,19,00,10,10.70
2007,06,19,00,11,10.70
2007,06,19,00,12,10.60
2007,06,19,00,13,10.60
2007,06,19,00,14,10.60
2007,06,19,00,15,10.60
2007,06,19,00,16,10.60
2007,06,19,00,17,10.60
2007,06,19,00,18,10.50
2007,06,19,00,19,10.40
2007,06,19,00,20,10.40
2007,06,19,00,21,10.40
2007,06,19,00,22,10.40
2007,06,19,00,23,10.40
2007,06,19,00,24,10.40
2007,06,19,00,25,10.30
2007,06,19,00,26,10.30
2007,06,19,00,27,10.30
2007,06,19,00,28,10.30
2007,06,19,00,29,10.30
2007,06,19,00,30,10.20
2007,06,19,00,31,10.20
2007,06,19,00,32,10.20
2007,06,19,00,33,10.20
2007,06,19,00,34,10.20
2007,06,19,00,35,10.20
2007,06,19,00,36,10.10
2007,06,19,00,37,10.10
2007,06,19,00,38,10.10
2007,06,19,00,39,10.10
2007,06,19,00,40,10.10
2007,06,19,00,41,10.10
2007,06,19,00,42,10.10
2007,06,19,00,43,10.00
2007,06,19,00,44,9.90
2007,06,19,00,45,9.90
2007,06,19,00,46,9.90
2007,06,19,00,47,9.90
2007,06,19,00,48,9.90
2007,06,19,00,49,9.90
2007,06,19,00,50,9.80
2007,06,19,00,51,9.80
2007,06,19,00,52,9.80
2007,06,19,00,53,9.70
2007,06,19,00,54,9.70
2007,06,19,00,55,9.70
2007,06,19,00,56,9.70
2007,06,19,00,57,9.70
2007,06,19,00,58,9.70
2007,06,19,00,59,9.70
2007,06,19,01,00,9.70
2007,06,19,01,01,9.60
2007,06,19,01,02,9.60
2007,06,19,01,03,9.60
2007,06,19,01,04,9.60
2007,06,19,01,05,9.60
2007,06,19,01,06,9.50
2007,06,19,01,07,9.50
2007,06,19,01,08,9.50
2007,06,19,01,09,9.50
2007,06,19,01,10,9.50
2007,06,19,01,11,9.40
2007,06,19,01,12,9.40
2007,06,19,01,13,9.40
2007,06,19,01,14,9.30
2007,06,19,01,15,9.30
2007,06,19,01,16,9.20
2007,06,19,01,17,9.20
2007,06,19,01,18,9.20
2007,06,19,01,19,9.20
2007,06,19,01,20,9.20
2007,06,19,01,21,9.20
2007,06,19,01,22,9.10
2007,06,19,01,23,9.10
2007,06,19,01,24,9.10
2007,06,19,01,25,9.10
2007,06,19,01,26,9.00
2007,06,19,01,27,9.00
2007,06,19,01,28,9.00
2007,06,19,01,29,9.00
2007,06,19,01,30,8.90
2007,06,19,01,31,8.90
2007,06,19,01,32,8.90
2007,06,19,01,33,8.90
2007,06,19,01,34,8.80
2007,06,19,01,35,8.80
2007,06,19,01,36,8.80
2007,06,19,01,37,8.80
2007,06,19,01,38,8.80
2007,06,19,01,39,8.80
2007,06,19,01,40,8.70
2007,06,19,01,41,8.70
2007,06,19,01,42,8.70
2007,06,19,01,43,8.70
2007,06,19,01,44,8.70
2007,06,19,01,45,8.70
2007,06,19,01,46,8.70
2007,06,19,01,47,8.70
2007,06,19,01,48,8.70
2007,06,19,01,49,8.70
2007,06,19,01,50,8.60
2007,06,19,01,51,8.60
2007,06,19,01,52,8.60
2007,06,19,01,53,8.60
2007,06,19,01,54,8.60
2007,06,19,01,55,8.50
2007,06,19,01,56,8.50
2007,06,19,01,57,8.50
2007,06,19,01,58,8.50
2007,06,19,01,59,8.40
2007,06,19,02,00,8.40
2007,06,19,02,01,8.40
2007,06,19,02,02,8.30
2007,06,19,02,03,8.30
2007,06,19,02,04,8.30
2007,06,19,02,05,8.30
2007,06,19,02,06,8.20
2007,06,19,02,07,8.20
2007,06,19,02,08,8.20
2007,06,19,02,09,8.20
2007,06,19,02,10,8.20
2007,06,19,02,11,8.20
2007,06,19,02,12,8.20
2007,06,19,02,13,8.10
2007,06,19,02,14,8.10
2007,06,19,02,15,8.10
2007,06,19,02,16,8.10
2007,06,19,02,17,8.10
2007,06,19,02,18,8.00
2007,06,19,02,19,8.00
2007,06,19,02,20,8.00
2007,06,19,02,21,8.00
2007,06,19,02,22,8.00
2007,06,19,02,23,8.00
2007,06,19,02,24,8.00
2007,06,19,02,25,8.00
2007,06,19,02,26,7.90
2007,06,19,02,27,7.90
2007,06,19,02,28,7.90
2007,06,19,02,29,7.90
2007,06,19,02,30,7.90
2007,06,19,02,31,7.90
2007,06,19,02,32,7.90
2007,06,19,02,33,7.90
2007,06,19,02,34,7.90
2007,06,19,02,35,7.90
2007,06,19,02,36,7.90
2007,06,19,02,37,7.90
2007,06,19,02,38,7.90
2007,06,19,02,39,7.90
2007,06,19,02,40,7.90
2007,06,19,02,41,7.90
2007,06,19,02,42,7.90
2007,06,19,02,43,7.90
2007,06,19,02,44,7.90
2007,06,19,02,45,7.90
2007,06,19,02,46,7.90
2007,06,19,02,47,7.90
2007,06,19,02,48,7.90
2007,06,19,02,49,7.90
2007,06,19,02,50,7.90
2007,06,19,02,51,7.90
2007,06,19,02,52,7.90
2007,06,19,02,53,7.90
2007,06,19,02,54,7.90
2007,06,19,02,55,7.90
2007,06,19,02,56,7.90
2007,06,19,02,57,7.90
2007,06,19,02,58,7.90
2007,06,19,02,59,7.90
2007,06,19,03,00,7.90
2007,06,19,03,01,7.90
2007,06,19,03,02,7.90
2007,06,19,03,03,7.90
2007,06,19,03,04,7.90
2007,06,19,03,05,7.90
2007,06,19,03,06,7.90
2007,06,19,03,07,7.90
2007,06,19,03,08,8.00
2007,06,19,03,09,8.00
2007,06,19,03,10,8.00
2007,06,19,03,11,8.00
2007,06,19,03,12,8.00
2007,06,19,03,13,8.00
2007,06,19,03,14,8.00
2007,06,19,03,15,8.00
2007,06,19,03,16,8.00
2007,06,19,03,17,8.00
2007,06,19,03,18,8.00
2007,06,19,03,19,8.00
2007,06,19,03,20,8.00
2007,06,19,03,21,8.00
2007,06,19,03,22,8.00
2007,06,19,03,23,8.10
2007,06,19,03,24,8.10
2007,06,19,03,25,8.10
2007,06,19,03,26,8.10
2007,06,19,03,27,8.10
2007,06,19,03,28,8.10
2007,06,19,03,29,8.10
2007,06,19,03,30,8.10
2007,06,19,03,31,8.10
2007,06,19,03,32,8.10
2007,06,19,03,33,8.10
2007,06,19,03,34,8.10
2007,06,19,03,35,8.10
2007,06,19,03,36,8.10
2007,06,19,03,37,8.20
2007,06,19,03,38,8.20
2007,06,19,03,39,8.20
2007,06,19,03,40,8.20
2007,06,19,03,41,8.20
2007,06,19,03,42,8.20
2007,06,19,03,43,8.20
2007,06,19,03,44,8.20
2007,06,19,03,45,8.20
2007,06,19,03,46,8.20
2007,06,19,03,47,8.20
2007,06,19,03,48,8.20
2007,06,19,03,49,8.10
2007,06,19,03,50,8.10
2007,06,19,03,51,8.10
2007,06,19,03,52,8.10
2007,06,19,03,53,8.10
2007,06,19,03,54,8.10
2007,06,19,03,55,8.10
2007,06,19,03,56,8.10
2007,06,19,03,57,8.10
2007,06,19,03,58,8.10
2007,06,19,03,59,8.10
2007,06,19,04,00,8.10
2007,06,19,04,01,8.10
2007,06,19,04,02,8.10
2007,06,19,04,03,8.20
2007,06,19,04,04,8.20
2007,06,19,04,05,8.20
2007,06,19,04,06,8.20
2007,06,19,04,07,8.20
2007,06,19,04,08,8.20
2007,06,19,04,09,8.20
2007,06,19,04,10,8.20
2007,06,19,04,11,8.20
2007,06,19,04,12,8.20
2007,06,19,04,13,8.20
2007,06,19,04,14,8.20
2007,06,19,04,15,8.20
2007,06,19,04,16,8.20
2007,06,19,04,17,8.20
2007,06,19,04,18,8.20
2007,06,19,04,19,8.20
2007,06,19,04,20,8.20
2007,06,19,04,21,8.20
2007,06,19,04,22,8.20
2007,06,19,04,23,8.20
2007,06,19,04,24,8.20
2007,06,19,04,25,8.20
2007,06,19,04,26,8.20
2007,06,19,04,27,8.20
2007,06,19,04,28,8.20
2007,06,19,04,29,8.20
2007,06,19,04,30,8.20
2007,06,19,04,31,8.20
2007,06,19,04,32,8.20
2007,06,19,04,33,8.20
2007,06,19,04,34,8.20
2007,06,19,04,35,8.20
2007,06,19,04,36,8.20
2007,06,19,04,37,8.20
2007,06,19,04,38,8.20
2007,06,19,04,39,8.20
2007,06,19,04,40,8.20
2007,06,19,04,41,8.20
2007,06,19,04,42,8.20
2007,06,19,04,43,8.20
2007,06,19,04,44,8.20
2007,06,19,04,45,8.20
2007,06,19,04,46,8.20
2007,06,19,04,47,8.20
2007,06,19,04,48,8.20
2007,06,19,04,49,8.20
2007,06,19,04,50,8.20
2007,06,19,04,51,8.20
2007,06,19,04,52,8.20
2007,06,19,04,53,8.20
2007,06,19,04,54,8.20
2007,06,19,04,55,8.20
2007,06,19,04,56,8.20
2007,06,19,04,57,8.10
2007,06,19,04,58,8.10
2007,06,19,04,59,8.10
2007,06,19,05,00,8.10
2007,06,19,05,01,8.10
2007,06,19,05,02,8.00
2007,06,19,05,03,8.00
2007,06,19,05,04,8.00
2007,06,19,05,05,8.00
2007,06,19,05,06,7.90
2007,06,19,05,07,7.90
2007,06,19,05,08,7.90
2007,06,19,05,09,7.90
2007,06,19,05,10,7.90
2007,06,19,05,11,7.80
2007,06,19,05,12,7.80
2007,06,19,05,13,7.80
2007,06,19,05,14,7.80
2007,06,19,05,15,7.80
2007,06,19,05,16,7.80
2007,06,19,05,17,7.80
2007,06,19,05,18,7.80
2007,06,19,05,19,7.80
2007,06,19,05,20,7.80
2007,06,19,05,21,7.80
2007,06,19,05,22,7.80
2007,06,19,05,23,7.70
2007,06,19,05,24,7.70
2007,06,19,05,25,7.70
2007,06,19,05,26,7.70
2007,06,19,05,27,7.70
2007,06,19,05,28,7.70
2007,06,19,05,29,7.70
2007,06,19,05,30,7.70
2007,06,19,05,31,7.70
2007,06,19,05,32,7.70
2007,06,19,05,33,7.70
2007,06,19,05,34,7.70
2007,06,19,05,35,7.70
2007,06,19,05,36,7.70
2007,06,19,05,37,7.60
2007,06,19,05,38,7.60
2007,06,19,05,39,7.60
2007,06,19,05,40,7.60
2007,06,19,05,41,7.60
2007,06,19,05,42,7.70
2007,06,19,05,43,7.70
2007,06,19,05,44,7.70
2007,06,19,05,45,7.70
2007,06,19,05,46,7.70
2007,06,19,05,47,7.80
2007,06,19,05,48,7.80
2007,06,19,05,49,7.80
2007,06,19,05,50,7.80
2007,06,19,05,51,7.80
2007,06,19,05,52,7.80
2007,06,19,05,53,7.80
2007,06,19,05,54,7.80
2007,06,19,05,55,7.80
2007,06,19,05,56,7.80
2007,06,19,05,57,7.90
2007,06,19,05,58,7.90
2007,06,19,05,59,8.00
2007,06,19,06,00,8.00
2007,06,19,06,01,8.10
2007,06,19,06,02,8.10
2007,06,19,06,03,8.10
2007,06,19,06,04,8.20
2007,06,19,06,05,8.20
2007,06,19,06,06,8.20
2007,06,19,06,07,8.20
2007,06,19,06,08,8.20
2007,06,19,06,09,8.20
2007,06,19,06,10,8.30
2007,06,19,06,11,8.30
2007,06,19,06,12,8.40
2007,06,19,06,13,8.40
2007,06,19,06,14,8.50
2007,06,19,06,15,8.60
2007,06,19,06,16,8.60
2007,06,19,06,17,8.70
2007,06,19,06,18,8.70
2007,06,19,06,19,8.70
2007,06,19,06,20,8.70
2007,06,19,06,21,8.80
2007,06,19,06,22,8.80
2007,06,19,06,23,8.90
2007,06,19,06,24,8.90
2007,06,19,06,25,8.90
2007,06,19,06,26,9.00
2007,06,19,06,27,9.00
2007,06,19,06,28,9.00
2007,06,19,06,29,9.10
2007,06,19,06,30,9.20
2007,06,19,06,31,9.20
2007,06,19,06,32,9.20
2007,06,19,06,33,9.20
2007,06,19,06,34,9.30
2007,06,19,06,35,9.30
2007,06,19,06,36,9.40
2007,06,19,06,37,9.40
2007,06,19,06,38,9.40
2007,06,19,06,39,9.50
2007,06,19,06,40,9.50
2007,06,19,06,41,9.60
2007,06,19,06,42,9.60
2007,06,19,06,43,9.70
2007,06,19,06,44,9.70
2007,06,19,06,45,9.80
2007,06,19,06,46,9.80
2007,06,19,06,47,9.90
2007,06,19,06,48,9.90
2007,06,19,06,49,10.00
2007,06,19,06,50,10.10
2007,06,19,06,51,10.10
2007,06,19,06,52,10.20
2007,06,19,06,53,10.20
2007,06,19,06,54,10.30
2007,06,19,06,55,10.40
2007,06,19,06,56,10.40
2007,06,19,06,57,10.40
2007,06,19,06,58,10.50
2007,06,19,06,59,10.60
2007,06,19,07,00,10.60
2007,06,19,07,01,10.70
2007,06,19,07,02,10.70
2007,06,19,07,03,10.80
2007,06,19,07,04,10.80
2007,06,19,07,05,10.80
2007,06,19,07,06,10.90
2007,06,19,07,07,10.90
2007,06,19,07,08,11.00
2007,06,19,07,09,11.10
2007,06,19,07,10,11.10
2007,06,19,07,11,11.20
2007,06,19,07,12,11.30
2007,06,19,07,13,11.30
2007,06,19,07,14,11.30
2007,06,19,07,15,11.40
2007,06,19,07,16,11.40
2007,06,19,07,17,11.40
2007,06,19,07,18,11.50
2007,06,19,07,19,11.60
2007,06,19,07,20,11.60
2007,06,19,07,21,11.70
2007,06,19,07,22,11.80
2007,06,19,07,23,11.90
2007,06,19,07,24,12.00
2007,06,19,07,25,12.10
2007,06,19,07,26,12.20
2007,06,19,07,27,12.30
2007,06,19,07,28,12.40
2007,06,19,07,29,12.50
2007,06,19,07,30,12.60
2007,06,19,07,31,12.60
2007,06,19,07,32,12.70
2007,06,19,07,33,12.80
2007,06,19,07,34,12.90
2007,06,19,07,35,13.10
2007,06,19,07,36,13.10
2007,06,19,07,37,13.20
2007,06,19,07,38,13.10
2007,06,19,07,39,13.20
2007,06,19,07,40,13.20
2007,06,19,07,41,13.30
2007,06,19,07,42,13.30
2007,06,19,07,43,13.40
2007,06,19,07,44,13.50
2007,06,19,07,45,13.50
2007,06,19,07,46,13.60
2007,06,19,07,47,13.60
2007,06,19,07,48,13.70
2007,06,19,07,49,13.70
2007,06,19,07,50,13.70
2007,06,19,07,51,13.70
2007,06,19,07,52,13.70
2007,06,19,07,53,13.70
2007,06,19,07,54,13.60
2007,06,19,07,55,13.60
2007,06,19,07,56,13.60
2007,06,19,07,57,13.60
2007,06,19,07,58,13.70
2007,06,19,07,59,13.70
2007,06,19,08,00,13.80
2007,06,19,08,01,13.90
2007,06,19,08,02,13.90
2007,06,19,08,03,14.00
2007,06,19,08,04,14.10
2007,06,19,08,05,14.20
2007,06,19,08,06,14.20
2007,06,19,08,07,14.30
2007,06,19,08,08,14.30
2007,06,19,08,09,14.40
2007,06,19,08,10,14.40
2007,06,19,08,11,14.40
2007,06,19,08,12,14.40
2007,06,19,08,13,14.50
2007,06,19,08,14,14.50
2007,06,19,08,15,14.50
2007,06,19,08,16,14.60
2007,06,19,08,17,14.60
2007,06,19,08,18,14.70
2007,06,19,08,19,14.80
2007,06,19,08,20,14.80
2007,06,19,08,21,14.80
2007,06,19,08,22,14.80
2007,06,19,08,23,14.80
2007,06,19,08,24,14.80
2007,06,19,08,25,14.80
2007,06,19,08,26,14.80
2007,06,19,08,27,14.70
2007,06,19,08,28,14.60
2007,06,19,08,29,14.60
2007,06,19,08,30,14.60
2007,06,19,08,31,14.60
2007,06,19,08,32,14.60
2007,06,19,08,33,14.70
2007,06,19,08,34,14.70
2007,06,19,08,35,14.70
2007,06,19,08,36,14.70
2007,06,19,08,37,14.60
2007,06,19,08,38,14.60
2007,06,19,08,39,14.60
2007,06,19,08,40,14.50
2007,06,19,08,41,14.50
2007,06,19,08,42,14.60
2007,06,19,08,43,14.60
2007,06,19,08,44,14.60
2007,06,19,08,45,14.70
2007,06,19,08,46,14.80
2007,06,19,08,47,14.80
2007,06,19,08,48,14.90
2007,06,19,08,49,15.00
2007,06,19,08,50,15.00
2007,06,19,08,51,15.00
2007,06,19,08,52,15.00
2007,06,19,08,53,14.90
2007,06,19,08,54,14.90
2007,06,19,08,55,14.80
2007,06,19,08,56,14.90
2007,06,19,08,57,14.90
2007,06,19,08,58,14.90
2007,06,19,08,59,15.00
2007,06,19,09,00,15.00
2007,06,19,09,01,15.10
2007,06,19,09,02,15.10
2007,06,19,09,03,15.10
2007,06,19,09,04,15.00
2007,06,19,09,05,15.00
2007,06,19,09,06,15.00
2007,06,19,09,07,14.90
2007,06,19,09,08,14.80
2007,06,19,09,09,14.80
2007,06,19,09,10,14.70
2007,06,19,09,11,14.80
2007,06,19,09,12,14.80
2007,06,19,09,13,14.80
2007,06,19,09,14,14.90
2007,06,19,09,15,14.90
2007,06,19,09,16,15.00
2007,06,19,09,17,15.00
2007,06,19,09,18,14.80
2007,06,19,09,19,14.70
2007,06,19,09,20,14.70
2007,06,19,09,21,14.60
2007,06,19,09,22,14.50
2007,06,19,09,23,14.30
2007,06,19,09,24,14.20
2007,06,19,09,25,14.20
2007,06,19,09,26,14.10
2007,06,19,09,27,14.00
2007,06,19,09,28,14.00
2007,06,19,09,29,13.90
2007,06,19,09,30,13.90
2007,06,19,09,31,14.00
2007,06,19,09,32,14.10
2007,06,19,09,33,14.20
2007,06,19,09,34,14.40
2007,06,19,09,35,14.50
2007,06,19,09,36,14.50
2007,06,19,09,37,14.40
2007,06,19,09,38,14.40
2007,06,19,09,39,14.40
2007,06,19,09,40,14.40
2007,06,19,09,41,14.40
2007,06,19,09,42,14.30
2007,06,19,09,43,14.30
2007,06,19,09,44,14.20
2007,06,19,09,45,14.20
2007,06,19,09,46,14.30
2007,06,19,09,47,14.40
2007,06,19,09,48,14.40
2007,06,19,09,49,14.50
2007,06,19,09,50,14.50
2007,06,19,09,51,14.50
2007,06,19,09,52,14.50
2007,06,19,09,53,14.60
2007,06,19,09,54,14.60
2007,06,19,09,55,14.60
2007,06,19,09,56,14.60
2007,06,19,09,57,14.50
2007,06,19,09,58,14.40
2007,06,19,09,59,14.40
2007,06,19,10,00,14.40
2007,06,19,10,01,14.40
2007,06,19,10,02,14.60
2007,06,19,10,03,14.60
2007,06,19,10,04,14.50
2007,06,19,10,05,14.50
2007,06,19,10,06,14.50
2007,06,19,10,07,14.40
2007,06,19,10,08,14.40
2007,06,19,10,09,14.30
2007,06,19,10,10,14.20
2007,06,19,10,11,14.20
2007,06,19,10,12,14.20
2007,06,19,10,13,14.30
2007,06,19,10,14,14.30
2007,06,19,10,15,14.20
2007,06,19,10,16,14.20
2007,06,19,10,17,14.30
2007,06,19,10,18,14.40
2007,06,19,10,19,14.40
2007,06,19,10,20,14.50
2007,06,19,10,21,14.60
2007,06,19,10,22,14.80
2007,06,19,10,23,14.80
2007,06,19,10,24,14.80
2007,06,19,10,25,14.80
2007,06,19,10,26,14.80
2007,06,19,10,27,14.80
2007,06,19,10,28,14.80
2007,06,19,10,29,14.80
2007,06,19,10,30,14.90
2007,06,19,10,31,15.00
2007,06,19,10,32,15.10
2007,06,19,10,33,15.10
2007,06,19,10,34,14.90
2007,06,19,10,35,14.80
2007,06,19,10,36,14.90
2007,06,19,10,37,15.00
2007,06,19,10,38,15.10
2007,06,19,10,39,15.20
2007,06,19,10,40,15.30
2007,06,19,10,41,15.30
2007,06,19,10,42,15.30
2007,06,19,10,43,15.40
2007,06,19,10,44,15.40
2007,06,19,10,45,15.40
2007,06,19,10,46,15.50
2007,06,19,10,47,15.60
2007,06,19,10,48,15.60
2007,06,19,10,49,15.70
2007,06,19,10,50,15.80
2007,06,19,10,51,15.90
2007,06,19,10,52,16.10
2007,06,19,10,53,16.20
2007,06,19,10,54,16.20
2007,06,19,10,55,16.00
2007,06,19,10,56,15.70
2007,06,19,10,57,15.50
2007,06,19,10,58,15.50
2007,06,19,10,59,15.30
2007,06,19,11,00,15.10
2007,06,19,11,01,15.00
2007,06,19,11,02,14.90
2007,06,19,11,03,14.80
2007,06,19,11,04,14.80
2007,06,19,11,05,14.80
2007,06,19,11,06,14.90
2007,06,19,11,07,15.00
2007,06,19,11,08,15.10
2007,06,19,11,09,15.10
2007,06,19,11,10,15.10
2007,06,19,11,11,15.20
2007,06,19,11,12,15.10
2007,06,19,11,13,15.10
2007,06,19,11,14,15.20
2007,06,19,11,15,15.30
2007,06,19,11,16,15.50
2007,06,19,11,17,15.60
2007,06,19,11,18,15.60
2007,06,19,11,19,15.50
2007,06,19,11,20,15.60
2007,06,19,11,21,15.60
2007,06,19,11,22,15.70
2007,06,19,11,23,15.60
2007,06,19,11,24,15.40
2007,06,19,11,25,15.30
2007,06,19,11,26,15.30
2007,06,19,11,27,15.30
2007,06,19,11,28,15.30
2007,06,19,11,29,15.20
2007,06,19,11,30,15.10
2007,06,19,11,31,14.90
2007,06,19,11,32,14.70
2007,06,19,11,33,14.60
2007,06,19,11,34,14.50
2007,06,19,11,35,14.60
2007,06,19,11,36,14.60
2007,06,19,11,37,14.70
2007,06,19,11,38,14.80
2007,06,19,11,39,14.70
2007,06,19,11,40,14.70
2007,06,19,11,41,14.80
2007,06,19,11,42,14.80
2007,06,19,11,43,14.90
2007,06,19,11,44,14.90
2007,06,19,11,45,14.90
2007,06,19,11,46,15.00
2007,06,19,11,47,15.00
2007,06,19,11,48,15.10
2007,06,19,11,49,15.20
2007,06,19,11,50,15.20
2007,06,19,11,51,15.20
2007,06,19,11,52,15.30
2007,06,19,11,53,15.20
2007,06,19,11,54,15.20
2007,06,19,11,55,15.20
2007,06,19,11,56,15.30
2007,06,19,11,57,15.40
2007,06,19,11,58,15.60
2007,06,19,11,59,15.80
2007,06,19,12,00,15.80
2007,06,19,12,01,15.60
2007,06,19,12,02,15.50
2007,06,19,12,03,15.50
2007,06,19,12,04,15.50
2007,06,19,12,05,15.50
2007,06,19,12,06,15.40
2007,06,19,12,07,15.30
2007,06,19,12,08,15.40
2007,06,19,12,09,15.50
2007,06,19,12,10,15.40
2007,06,19,12,11,15.50
2007,06,19,12,12,15.60
2007,06,19,12,13,15.80
2007,06,19,12,14,16.00
2007,06,19,12,15,15.90
2007,06,19,12,16,15.70
2007,06,19,12,17,15.70
2007,06,19,12,18,15.80
2007,06,19,12,19,15.80
2007,06,19,12,20,15.90
2007,06,19,12,21,15.90
2007,06,19,12,22,15.90
2007,06,19,12,23,15.80
2007,06,19,12,24,15.60
2007,06,19,12,25,15.60
2007,06,19,12,26,15.50
2007,06,19,12,27,15.30
2007,06,19,12,28,15.20
2007,06,19,12,29,15.10
2007,06,19,12,30,15.10
2007,06,19,12,31,15.00
2007,06,19,12,32,15.10
2007,06,19,12,33,15.00
2007,06,19,12,34,15.00
2007,06,19,12,35,15.00
2007,06,19,12,36,15.10
2007,06,19,12,37,15.10
2007,06,19,12,38,15.00
2007,06,19,12,39,15.00
2007,06,19,12,40,14.90
2007,06,19,12,41,15.00
2007,06,19,12,42,15.10
2007,06,19,12,43,15.10
2007,06,19,12,44,15.00
2007,06,19,12,45,14.90
2007,06,19,12,46,15.00
2007,06,19,12,47,15.00
2007,06,19,12,48,15.20
2007,06,19,12,49,15.30
2007,06,19,12,50,15.30
2007,06,19,12,51,15.40
2007,06,19,12,52,15.40
2007,06,19,12,53,15.30
2007,06,19,12,54,15.30
2007,06,19,12,55,15.30
2007,06,19,12,56,15.40
2007,06,19,12,57,15.50
2007,06,19,12,58,15.60
2007,06,19,12,59,15.60
2007,06,19,13,00,15.70
2007,06,19,13,01,15.70
2007,06,19,13,02,15.70
2007,06,19,13,03,15.70
2007,06,19,13,04,15.80
2007,06,19,13,05,15.80
2007,06,19,13,06,15.80
2007,06,19,13,07,15.80
2007,06,19,13,08,15.70
2007,06,19,13,09,15.70
2007,06,19,13,10,15.70
2007,06,19,13,11,15.80
2007,06,19,13,12,15.80
2007,06,19,13,13,15.80
2007,06,19,13,14,15.80
2007,06,19,13,15,15.80
2007,06,19,13,16,15.80
2007,06,19,13,17,15.80
2007,06,19,13,18,15.80
2007,06,19,13,19,15.80
2007,06,19,13,20,15.70
2007,06,19,13,21,15.70
2007,06,19,13,22,15.70
2007,06,19,13,23,15.80
2007,06,19,13,24,15.80
2007,06,19,13,25,15.80
2007,06,19,13,26,15.80
2007,06,19,13,27,15.80
2007,06,19,13,28,15.70
2007,06,19,13,29,15.80
2007,06,19,13,30,15.90
2007,06,19,13,31,15.90
2007,06,19,13,32,15.80
2007,06,19,13,33,15.80
2007,06,19,13,34,15.80
2007,06,19,13,35,15.70
2007,06,19,13,36,15.70
2007,06,19,13,37,15.60
2007,06,19,13,38,15.50
2007,06,19,13,39,15.40
2007,06,19,13,40,15.50
2007,06,19,13,41,15.70
2007,06,19,13,42,15.80
2007,06,19,13,43,15.90
2007,06,19,13,44,16.10
2007,06,19,13,45,16.30
2007,06,19,13,46,16.40
2007,06,19,13,47,16.40
2007,06,19,13,48,16.40
2007,06,19,13,49,16.30
2007,06,19,13,50,16.30
2007,06,19,13,51,16.30
2007,06,19,13,52,16.30
2007,06,19,13,53,16.30
2007,06,19,13,54,16.20
2007,06,19,13,55,16.10
2007,06,19,13,56,16.10
2007,06,19,13,57,16.10
2007,06,19,13,58,16.20
2007,06,19,13,59,16.30
2007,06,19,14,00,16.30
2007,06,19,14,01,16.50
2007,06,19,14,02,16.70
2007,06,19,14,03,16.80
2007,06,19,14,04,16.90
2007,06,19,14,05,17.00
2007,06,19,14,06,16.80
2007,06,19,14,07,16.70
2007,06,19,14,08,16.60
2007,06,19,14,09,16.70
2007,06,19,14,10,16.70
2007,06,19,14,11,16.70
2007,06,19,14,12,16.60
2007,06,19,14,13,16.60
2007,06,19,14,14,16.50
2007,06,19,14,15,16.40
2007,06,19,14,16,16.50
2007,06,19,14,17,16.60
2007,06,19,14,18,16.70
2007,06,19,14,19,16.60
2007,06,19,14,20,16.50
2007,06,19,14,21,16.50
2007,06,19,14,22,16.50
2007,06,19,14,23,16.50
2007,06,19,14,24,16.60
2007,06,19,14,25,16.40
2007,06,19,14,26,16.40
2007,06,19,14,27,16.50
2007,06,19,14,28,16.70
2007,06,19,14,29,16.80
2007,06,19,14,30,16.70
2007,06,19,14,31,16.70
2007,06,19,14,32,16.70
2007,06,19,14,33,16.60
2007,06,19,14,34,16.50
2007,06,19,14,35,16.30
2007,06,19,14,36,16.10
2007,06,19,14,37,16.00
2007,06,19,14,38,15.90
2007,06,19,14,39,15.80
2007,06,19,14,40,15.70
2007,06,19,14,41,15.70
2007,06,19,14,42,15.80
2007,06,19,14,43,15.80
2007,06,19,14,44,15.90
2007,06,19,14,45,16.00
2007,06,19,14,46,16.10
2007,06,19,14,47,16.30
2007,06,19,14,48,16.40
2007,06,19,14,49,16.40
2007,06,19,14,50,16.30
2007,06,19,14,51,16.30
2007,06,19,14,52,16.10
2007,06,19,14,53,16.10
2007,06,19,14,54,16.00
2007,06,19,14,55,15.90
2007,06,19,14,56,15.70
2007,06,19,14,57,15.70
2007,06,19,14,58,15.80
2007,06,19,14,59,15.70
2007,06,19,15,00,15.70
2007,06,19,15,01,15.70
2007,06,19,15,02,15.70
2007,06,19,15,03,15.90
2007,06,19,15,04,16.00
2007,06,19,15,05,16.10
2007,06,19,15,06,16.20
2007,06,19,15,07,16.10
2007,06,19,15,08,16.00
2007,06,19,15,09,15.90
2007,06,19,15,10,15.90
2007,06,19,15,11,16.00
2007,06,19,15,12,16.10
2007,06,19,15,13,16.20
2007,06,19,15,14,16.50
2007,06,19,15,15,16.70
2007,06,19,15,16,16.70
2007,06,19,15,17,16.80
2007,06,19,15,18,16.80
2007,06,19,15,19,16.80
2007,06,19,15,20,16.80
2007,06,19,15,21,16.90
2007,06,19,15,22,17.00
2007,06,19,15,23,17.20
2007,06,19,15,24,17.30
2007,06,19,15,25,17.40
2007,06,19,15,26,17.40
2007,06,19,15,27,17.50
2007,06,19,15,28,17.40
2007,06,19,15,29,17.40
2007,06,19,15,30,17.40
2007,06,19,15,31,17.40
2007,06,19,15,32,17.60
2007,06,19,15,33,17.80
2007,06,19,15,34,17.90
2007,06,19,15,35,18.10
2007,06,19,15,36,18.20
2007,06,19,15,37,18.30
2007,06,19,15,38,18.30
2007,06,19,15,39,18.40
2007,06,19,15,40,18.40
2007,06,19,15,41,18.40
2007,06,19,15,42,18.40
2007,06,19,15,43,18.30
2007,06,19,15,44,18.30
2007,06,19,15,45,18.40
2007,06,19,15,46,18.40
2007,06,19,15,47,18.40
2007,06,19,15,48,18.50
2007,06,19,15,49,18.50
2007,06,19,15,50,18.40
2007,06,19,15,51,18.40
2007,06,19,15,52,18.40
2007,06,19,15,53,18.30
2007,06,19,15,54,18.30
2007,06,19,15,55,18.40
2007,06,19,15,56,18.60
2007,06,19,15,57,18.80
2007,06,19,15,58,18.80
2007,06,19,15,59,18.80
2007,06,19,16,00,18.90
2007,06,19,16,01,18.90
2007,06,19,16,02,18.80
2007,06,19,16,03,18.70
2007,06,19,16,04,18.60
2007,06,19,16,05,18.60
2007,06,19,16,06,18.60
2007,06,19,16,07,18.70
2007,06,19,16,08,18.70
2007,06,19,16,09,18.70
2007,06,19,16,10,18.70
2007,06,19,16,11,18.70
2007,06,19,16,12,18.80
2007,06,19,16,13,18.80
2007,06,19,16,14,18.80
2007,06,19,16,15,18.80
2007,06,19,16,16,18.90
2007,06,19,16,17,19.00
2007,06,19,16,18,19.10
2007,06,19,16,19,19.10
2007,06,19,16,20,19.10
2007,06,19,16,21,19.10
2007,06,19,16,22,19.20
2007,06,19,16,23,19.20
2007,06,19,16,24,19.20
2007,06,19,16,25,19.20
2007,06,19,16,26,19.20
2007,06,19,16,27,19.30
2007,06,19,16,28,19.40
2007,06,19,16,29,19.60
2007,06,19,16,30,19.80
2007,06,19,16,31,20.00
2007,06,19,16,32,20.10
2007,06,19,16,33,20.20
2007,06,19,16,34,20.40
2007,06,19,16,35,20.50
2007,06,19,16,36,20.60
2007,06,19,16,37,20.80
2007,06,19,16,38,20.90
2007,06,19,16,39,21.00
2007,06,19,16,40,21.10
2007,06,19,16,41,21.20
2007,06,19,16,42,21.30
2007,06,19,16,43,21.20
2007,06,19,16,44,21.00
2007,06,19,16,45,20.90
2007,06,19,16,46,20.90
2007,06,19,16,47,20.90
2007,06,19,16,48,20.90
2007,06,19,16,49,20.90
2007,06,19,16,50,20.90
2007,06,19,16,51,20.90
2007,06,19,16,52,21.00
2007,06,19,16,53,21.10
2007,06,19,16,54,21.10
2007,06,19,16,55,21.20
2007,06,19,16,56,21.30
2007,06,19,16,57,21.30
2007,06,19,16,58,21.30
2007,06,19,16,59,21.30
2007,06,19,17,00,21.30
2007,06,19,17,01,21.30
2007,06,19,17,02,21.30
2007,06,19,17,03,21.20
2007,06,19,17,04,21.20
2007,06,19,17,05,21.20
2007,06,19,17,06,21.20
2007,06,19,17,07,21.30
2007,06,19,17,08,21.30
2007,06,19,17,09,21.30
2007,06,19,17,10,21.40
2007,06,19,17,11,21.40
2007,06,19,17,12,21.40
2007,06,19,17,13,21.40
2007,06,19,17,14,21.30
2007,06,19,17,15,21.10
2007,06,19,17,16,20.90
2007,06,19,17,17,20.70
2007,06,19,17,18,20.60
2007,06,19,17,19,20.50
2007,06,19,17,20,20.40
2007,06,19,17,21,20.30
2007,06,19,17,22,20.30
2007,06,19,17,23,20.30
2007,06,19,17,24,20.40
2007,06,19,17,25,20.50
2007,06,19,17,26,20.50
2007,06,19,17,27,20.40
2007,06,19,17,28,20.40
2007,06,19,17,29,20.40
2007,06,19,17,30,20.50
2007,06,19,17,31,20.60
2007,06,19,17,32,20.70
2007,06,19,17,33,20.80
2007,06,19,17,34,20.90
2007,06,19,17,35,21.00